User: anonymous   Login
Location: Dunedin
(45.8670°S, 170.5000°E)
Time: 20:14:16
(UTC+13:00)
Language:

Lacrosse 5 - Orbit

View from above orbital plane
View from above orbital plane
View from above satellite
View from above satellite

Ground track
Ground track

The orbit data is extracted from the following two-line orbital elements,

1 28646U 05016A   19063.80786003 0.00000000  00000-0  00000-0 0    02
2 28646  57.0098 312.0219 0009000 113.8561 246.1438 14.51895104    05
Epoch (UTC): 04 March 2019 19:23:19
Eccentricity: 0.0009000
inclination: 57.0098°
perigee height: 713 km
apogee height: 726 km
right ascension of ascending node: 312.0219°
argument of perigee: 113.8561°
revolutions per day: 14.51895104
mean anomaly at epoch: 246.1438°
orbit number at epoch: 0

The dashed part of the orbit path shows where the satellite is in the earth's shadow,  

DLR